Left ArrowRight Arrow

Hourly Observations for June 14, 2024

Temp ( °F °C ) Dew Point ( °F °C ) Humidity (%) Winds ( mph kmh ) Pressure ( in mb ) Visibility ( mi km ) Precip ( " mm )
12:53 am 00:53 Mostly Cloudy with Light Rain 73 22.8 64 17.8 73 73 WNW 6 9 29.97 1015 10 16 0.01 0.13
1:53 am 01:53 Mostly Cloudy with Light Rain 69 20.6 65 18.3 87 87 Calm 29.93 1014 10 16 0.02 0.51
2:21 am 02:21 Mostly Clear with Nearby Thunderstorms 68 20 66 18.9 93 93 Calm 29.95 1014 10 16 0.01 0.13
2:36 am 02:36 Mostly Cloudy with Rain 71 21.7 64 17.8 79 79 VRB 7 11 29.97 1015 9 14 0.01 0.25
3:00 am 03:00 Cloudy with Thunderstorms 68 20 64 17.8 87 87 VRB 5 7 29.98 1015 8 13 0.01 0.25
3:15 am 03:15 Cloudy with Nearby Thunderstorms 67 19.4 65 18.3 93 93 Calm 29.97 1015 4 6 0.03 0.76
3:30 am 03:30 Cloudy with Thunderstorms 67 19.4 65 18.3 93 93 Calm 29.96 1014 4 6 0.05 1.27
3:45 am 03:45 Mostly Cloudy with Light Rain 67 19.4 65 18.3 93 93 Calm 29.93 1013 5 8 0.09 2.29
3:53 am 03:53 Mostly Cloudy with Light Rain 67 19.4 65 18.3 93 93 Calm 29.90 1013 6 10 0.10 2.54
4:53 am 04:53 Mostly Cloudy with Light Rain 67 19.4 66 18.9 97 97 Calm 29.90 1012 6 10 0.02 0.51
5:53 am 05:53 Mostly Clear 67 19.4 66 18.9 97 97 VRB 3 6 29.92 1013 10 16 0.01 0.13
6:53 am 06:53 Partly Cloudy with Light Rain 68 20 66 18.9 93 93 Calm 29.93 1013 6 10 0.01 0.13
7:53 am 07:53 Mostly Sunny 70 21.1 66 18.9 87 87 Calm 29.93 1014 10 16 0.01 0.13
8:53 am 08:53 Mostly Cloudy 73 22.8 67 19.4 81 81 Calm 29.95 1014 10 16 0.00 0.00
9:53 am 09:53 Cloudy 76 24.4 65 18.3 69 69 Calm 29.95 1014 10 16 0.01 0.13
10:43 am 10:43 Mostly Cloudy with Heavy Rain 74 23.3 68 20 82 82 SE 5 7 29.93 1013 2 3 0.07 1.78
10:53 am 10:53 Mostly Cloudy with Light Rain 75 23.9 69 20.6 82 82 SSW 3 6 29.94 1014 4 6 0.08 2.03
11:53 am 11:53 Cloudy 79 26.1 68 20 69 69 Calm 29.95 1014 10 16 0.01 0.13
12:53 pm 12:53 Mostly Cloudy 81 27.2 67 19.4 62 62 Calm 29.93 1014 10 16 0.00 0.00
1:53 pm 13:53 Mostly Cloudy 84 28.9 68 20 59 59 Calm 29.93 1013 10 16 0.00 0.00
2:53 pm 14:53 Cloudy 86 30 69 20.6 57 57 Calm 29.93 1013 10 16 0.00 0.00
3:53 pm 15:53 Mostly Sunny 85 29.4 69 20.6 59 59 Calm 29.92 1013 10 16 0.00 0.00
4:53 pm 16:53 Partly Cloudy 88 31.1 69 20.6 54 54 N 5 7 29.90 1013 10 16 0.00 0.00
5:53 pm 17:53 Mostly Cloudy 88 31.1 67 19.4 50 50 N 6 9 29.90 1013 10 16 0.00 0.00
6:53 pm 18:53 Mostly Sunny 88 31.1 64 17.8 45 45 NNW 8 13 29.90 1013 10 16 0.00 0.00
7:53 pm 19:53 Sunny 85 29.4 61 16.1 45 45 NW 9 15 29.92 1013 10 16 0.00 0.00
8:53 pm 20:53 Sunny 78 25.6 62 16.7 58 58 WNW 5 7 29.93 1014 10 16 0.00 0.00
9:53 pm 21:53 Mostly Cloudy 77 25 63 17.2 62 62 N 6 9 29.96 1014 10 16 0.00 0.00
10:53 pm 22:53 Cloudy 79 26.1 56 13.3 45 45 ENE 6 9 29.99 1016 10 16 0.00 0.00
11:53 pm 23:53 Mostly Cloudy 75 23.9 55 12.8 50 50 E 6 9 30.01 1016 10 16 0.00 0.00

Powered by Vaisala Xweather